TimeEST,TemperatureF,Dew PointF,Humidity,Sea Level PressureIn,VisibilityMPH,Wind Direction,Wind SpeedMPH,Gust SpeedMPH,PrecipitationIn,Events,Conditions,WindDirDegrees,DateUTC
12:15 AM,35.6,35.6,100,29.44,0.2,South,6.9,-,N/A,Fog,Fog,170,2013-01-12 05:15:00
12:25 AM,37.4,37.4,100,29.44,3.0,South,8.1,-,N/A,,Overcast,170,2013-01-12 05:25:00
12:53 AM,37.9,37.0,97,29.46,10.0,South,9.2,-,N/A,,Overcast,190,2013-01-12 05:53:00
1:53 AM,37.9,37.9,100,29.45,10.0,SSW,5.8,-,N/A,,Overcast,200,2013-01-12 06:53:00
2:40 AM,37.4,37.4,100,29.40,10.0,SE,5.8,-,N/A,,Overcast,140,2013-01-12 07:40:00
2:53 AM,39.2,37.4,93,29.41,10.0,SE,6.9,-,N/A,,Overcast,140,2013-01-12 07:53:00
3:01 AM,39.2,37.4,93,29.41,10.0,SE,6.9,-,N/A,,Overcast,140,2013-01-12 08:01:00
3:53 AM,39.0,37.9,96,29.41,10.0,SE,9.2,-,N/A,,Overcast,140,2013-01-12 08:53:00
4:18 AM,39.2,37.4,93,29.37,10.0,SE,10.4,-,N/A,,Overcast,140,2013-01-12 09:18:00
4:26 AM,39.2,37.4,93,29.36,10.0,SSE,8.1,-,N/A,,Overcast,150,2013-01-12 09:26:00
4:53 AM,39.9,39.0,97,29.38,9.0,SSE,9.2,-,N/A,,Overcast,160,2013-01-12 09:53:00
5:24 AM,39.2,39.2,100,29.34,8.0,SSE,5.8,-,N/A,,Overcast,160,2013-01-12 10:24:00
5:53 AM,41.0,39.9,96,29.35,7.0,SE,4.6,-,N/A,,Overcast,130,2013-01-12 10:53:00
6:53 AM,39.2,39.2,100,29.31,7.0,ESE,3.5,-,N/A,,Overcast,120,2013-01-12 11:53:00
7:14 AM,39.2,39.2,100,29.31,7.0,SSE,3.5,-,N/A,,Overcast,150,2013-01-12 12:14:00
7:28 AM,41.0,39.2,93,29.32,7.0,SSW,3.5,-,N/A,,Overcast,200,2013-01-12 12:28:00
7:38 AM,41.0,39.2,93,29.32,6.0,SW,4.6,-,0.00,Rain,Light Rain,230,2013-01-12 12:38:00
7:53 AM,42.1,39.9,92,29.36,7.0,SW,5.8,-,0.00,,Overcast,220,2013-01-12 12:53:00
8:08 AM,42.8,39.2,87,29.34,8.0,SW,8.1,-,N/A,,Overcast,220,2013-01-12 13:08:00
8:53 AM,42.1,36.0,79,29.40,10.0,WSW,20.7,33.4,0.00,,Overcast,250,2013-01-12 13:53:00
9:53 AM,39.9,33.1,77,29.44,10.0,WSW,16.1,26.5,0.00,,Overcast,250,2013-01-12 14:53:00
10:53 AM,39.0,30.9,73,29.47,10.0,WSW,15.0,21.9,N/A,,Overcast,250,2013-01-12 15:53:00
11:53 AM,34.0,28.0,79,29.52,10.0,West,21.9,34.5,N/A,,Overcast,260,2013-01-12 16:53:00
12:53 PM,30.9,24.1,76,29.58,10.0,West,31.1,39.1,N/A,,Overcast,270,2013-01-12 17:53:00
1:53 PM,28.9,23.0,78,29.62,10.0,West,24.2,39.1,N/A,,Overcast,270,2013-01-12 18:53:00
2:53 PM,27.0,21.0,78,29.67,10.0,West,24.2,39.1,N/A,,Overcast,260,2013-01-12 19:53:00
3:53 PM,26.1,19.9,78,29.73,10.0,West,29.9,40.3,N/A,,Overcast,270,2013-01-12 20:53:00
4:34 PM,24.8,19.4,80,29.71,10.0,West,18.4,38.0,N/A,,Overcast,260,2013-01-12 21:34:00
4:53 PM,24.1,19.0,81,29.78,10.0,WSW,16.1,33.4,0.00,,Overcast,250,2013-01-12 21:53:00
5:25 PM,24.8,17.6,74,29.76,9.0,West,21.9,29.9,0.00,Snow,Light Snow,270,2013-01-12 22:25:00
5:53 PM,23.0,17.1,78,29.81,8.0,West,23.0,28.8,0.00,Snow,Light Snow,270,2013-01-12 22:53:00
6:53 PM,23.0,16.0,74,29.85,10.0,West,15.0,-,0.00,,Overcast,260,2013-01-12 23:53:00
7:19 PM,21.2,15.8,80,29.82,10.0,West,19.6,29.9,N/A,,Overcast,260,2013-01-13 00:19:00
7:53 PM,21.2,15.8,80,29.83,10.0,West,18.4,24.2,N/A,,Overcast,260,2013-01-13 00:53:00
8:20 PM,21.2,14.0,74,29.83,9.0,WSW,12.7,25.3,0.00,Snow,Light Snow,250,2013-01-13 01:20:00
8:53 PM,21.0,15.1,78,29.87,5.0,West,12.7,21.9,0.00,Snow,Light Snow,260,2013-01-13 01:53:00
9:02 PM,21.2,15.8,80,29.83,1.8,West,17.3,-,0.00,Snow,Light Snow,260,2013-01-13 02:02:00
9:14 PM,19.4,17.6,93,29.85,1.0,West,11.5,-,0.00,Snow,Light Snow,260,2013-01-13 02:14:00
9:33 PM,19.4,17.6,93,29.85,0.8,West,9.2,-,0.00,Snow,Light Snow,260,2013-01-13 02:33:00
9:53 PM,19.9,16.0,85,29.90,1.5,West,12.7,21.9,0.00,Snow,Light Snow,280,2013-01-13 02:53:00
9:57 PM,19.4,15.8,86,29.86,2.0,West,11.5,21.9,0.00,Snow,Light Snow,270,2013-01-13 02:57:00
10:01 PM,19.4,15.8,86,29.86,3.0,West,13.8,-,0.00,Snow,Light Snow,260,2013-01-13 03:01:00
10:07 PM,19.4,15.8,86,29.86,2.5,West,16.1,-,0.00,Snow,Light Snow,270,2013-01-13 03:07:00
10:21 PM,19.4,15.8,86,29.85,4.0,West,11.5,23.0,0.00,Snow,Light Snow,280,2013-01-13 03:21:00
10:53 PM,19.9,14.0,78,29.92,6.0,West,15.0,21.9,0.00,Snow,Light Snow,270,2013-01-13 03:53:00
11:39 PM,19.4,14.0,80,29.89,1.8,West,12.7,-,0.00,Snow,Light Snow,260,2013-01-13 04:39:00
11:50 PM,19.4,14.0,80,29.88,3.0,West,11.5,-,0.00,Snow,Light Snow,270,2013-01-13 04:50:00
11:53 PM,19.4,14.0,80,29.87,5.0,West,9.2,-,N/A,Snow,Light Snow,270,2013-01-13 04:53:00